Volver al catálogo

STARLINK-34554

ActivoComunicacionesVLEO
NORAD 64687·PAYLOAD·🇺🇸 United States

Lanzado Jun 28, 2025 desde Cape Canaveral Space Force Station

Loading…

Próximos Pases (próximas 24 horas)

TLE

ActualizadoSource: CelesTrak SupGP

Época: Sep 14, 2026, 22:59 UTC

1 64687C 25139Z   26257.95812500  .00027486  00000+0  81245-3 0  2579
2 64687  53.1583 323.5118 0001250  94.2838 274.8392 15.34361959    15

Sigue STARLINK-34554 en tiempo real con AllMySat

Download on the App Store